Location: *
(46.1200°N, 11.2700°E)
Time: 16:53:53
(UTC+00:00)

SME Rocket - Pass Details

Date: 02 March 2021
Orbit: 550 x 2652 km, 99.9° (Epoch: 10 April)

Event Time Altitude Azimuth Distance (km) Brightness Sun altitude
Rises 19:26:48 0° 14° (NNE) 5,120 7.8 -25.5°
Reaches altitude 10° 19:30:23 10° 13° (NNE) 3,811 7.1 -26.1°
Maximum altitude 19:38:53 71° 292° (WNW) 1,177 4.5 -27.5°
Drops below altitude 10° 19:44:20 10° 209° (SSW) 2,478 6.2 -28.3°
Sets 19:46:16 0° 207° (SSW) 3,240 6.8 -28.6°
